Probability
0 0 0 0 0 0 0 0 0 2 6 11 22 35 40 39 41 44 42 40 34 28 25 28 32 36 36 32 26 20 16 16 14 10 8 7 6 5 4 3 3 3 4 5
0 0 0 0 0 0 1 1 1 2 6 12 24 36 40 40 43 43 41 39 35 30 27 29 34 36 34 29 24 18 14 12 10 8 7 6 5 4 3 3 3 3 3 4
0 0 0 0 0 2 5 7 5 5 8 14 25 35 39 41 44 43 40 39 38 35 31 32 34 34 32 28 23 17 12 8 7 6 6 6 5 4 3 3 3 3 3 3
0 0 0 0 1 4 11 14 13 12 14 18 27 35 38 42 46 46 44 44 44 40 37 35 36 34 31 27 23 17 11 9 9 9 8 8 7 6 5 3 3 2 2 2
0 0 0 0 2 7 14 19 20 20 21 25 31 37 40 43 49 51 50 50 47 44 42 41 39 36 31 26 22 17 13 13 13 12 10 9 8 6 5 3 1 1 1 1
0 0 0 3 6 10 13 18 22 25 28 31 34 38 38 42 52 56 54 51 49 46 45 44 41 36 31 26 22 19 16 16 16 14 12 10 9 7 4 2 0 0 0 0
0 0 3 9 13 13 12 16 23 29 34 36 37 38 40 46 53 54 53 52 49 46 43 41 38 34 30 26 23 20 17 16 14 11 10 10 10 8 5 2 0 0 0 0
0 1 6 15 19 16 16 20 27 33 38 42 43 44 46 50 51 48 48 49 45 41 38 36 33 31 28 26 23 19 16 14 10 8 8 9 10 8 5 2 1 0 0 0
5 6 12 18 20 20 23 28 32 36 41 45 47 47 48 48 46 44 43 43 39 36 34 32 29 26 25 24 23 19 15 12 7 5 5 6 6 6 4 3 2 1 0 0
14 17 20 21 22 23 27 34 38 39 43 46 47 47 46 44 42 41 40 38 35 33 32 30 27 25 22 21 20 17 13 8 5 3 2 2 2 3 3 2 2 1 0 0
18 21 24 24 24 25 29 36 40 42 43 45 45 44 43 40 38 38 36 33 31 31 30 29 27 25 21 18 15 12 8 4 2 1 0 0 0 1 1 1 1 0 0 0
15 17 20 22 23 25 29 34 37 40 41 42 42 39 37 35 33 32 30 28 26 26 27 27 26 23 19 15 11 6 3 1 0 0 0 0 0 0 0 0 0 0 0 0
14 15 18 21 22 24 28 31 32 34 34 35 35 34 31 29 28 27 25 22 21 21 22 23 21 19 16 13 7 2 0 0 0 0 0 0 0 0 0 0 0 0 0 0
13 16 19 21 21 23 26 28 28 27 26 28 29 29 27 24 23 23 21 18 16 16 16 16 16 15 14 10 5 1 0 0 0 0 0 0 0 0 0 0 0 0 0 0
11 14 16 15 16 18 20 21 20 18 18 19 21 21 19 17 17 17 15 13 11 10 9 10 10 10 10 8 4 1 0 0 0 0 0 0 0 0 0 0 0 0 0 0
8 9 9 8 9 11 12 12 11 9 8 9 10 11 11 10 11 11 9 7 5 5 5 5 7 7 7 5 2 1 0 0 0 0 0 0 0 0 0 0 0 0 0 0
4 5 5 4 5 7 7 6 5 4 3 2 2 4 6 7 9 9 7 4 3 3 4 5 5 5 4 3 1 0 0 0 0 0 0 0 0 0 0 0 0 0 0 0
2 2 3 4 5 5 5 4 4 3 1 0 0 2 5 8 9 9 7 5 4 3 3 3 3 3 2 1 0 0 0 0 0 0 0 0 0 0 0 0 0 0 0 0
1 1 3 4 5 5 4 4 3 2 1 0 1 3 7 9 10 9 8 6 4 3 1 1 1 1 0 0 0 0 0 0 0 0 0 0 0 0 0 0 0 0 0 0
1 1 2 3 3 4 4 4 3 1 0 0 1 3 6 8 8 8 7 5 3 1 0 0 1 0 0 0 0 0 0 0 0 0 0 0 0 0 0 0 0 0 0 0
2 2 1 2 3 4 5 4 2 1 0 0 0 2 5 6 6 5 4 2 1 0 0 0 0 0 0 0 0 0 0 0 0 0 0 0 0 0 0 0 0 0 0 0
1 1 1 1 3 4 4 3 1 1 0 0 0 1 3 4 4 3 2 1 0 0 0 0 0 0 0 0 0 0 0 0 0 0 0 0 0 0 0 0 0 0 0 0
1 1 1 1 2 3 2 1 1 1 0 0 1 2 3 3 3 3 2 1 0 0 0 0 0 0 0 0 0 0 0 0 0 0 0 0 0 0 0 0 0 0 0 0
1 1 1 1 1 1 1 0 0 0 0 1 2 2 2 2 2 3 3 2 0 0 0 0 0 0 0 0 0 0 0 0 0 0 0 0 0 0 0 0 0 0 0 0
1 1 0 0 0 0 0 0 0 0 0 1 2 1 1 1 1 1 2 1 0 0 0 0 0 0 0 0 0 0 0 0 0 0 0 0 0 0 0 0 0 0 0 0
1 0 0 0 0 0 0 0 0 0 0 1 1 0 0 0 0 0 1 1 0 0 0 0 0 0 0 0 0 0 0 0 0 0 0 0 0 0 0 0 0 0 0 0
0 0 0 0 0 0 0 0 0 0 0 0 0 0 0 0 0 0 0 0 0 0 0 0 0 0 0 0 0 0 0 0 0 0 0 0 0 0 0 0 0 0 0 0
Wind_Speed
6 6 3 3 4 4 6 9 9 7 7 8 9 10 10 9 9 10 10 9 9 8 7 6 6 6 6 6 5 5 6 5 4 4 4 4 4 3 3 3 4 4 4 4
1 2 2 1 3 4 5 6 6 6 5 7 7 7 9 10 12 11 10 9 9 9 8 7 7 7 7 6 5 6 6 5 5 5 5 4 4 4 4 4 4 5 5 5
2 1 2 3 5 4 3 3 7 8 8 6 8 10 11 11 10 11 10 9 9 9 9 8 8 8 7 7 6 6 6 6 5 5 5 5 5 5 5 4 5 6 6 6
3 3 4 9 5 4 4 1 3 6 7 9 11 9 6 8 11 10 9 9 8 7 7 7 7 7 7 7 7 7 6 5 5 5 6 5 5 5 5 5 6 6 6 6
4 3 3 5 3 3 5 2 2 7 7 8 10 9 4 3 7 8 8 8 7 7 8 8 8 8 9 7 6 7 6 5 5 6 6 6 6 5 5 6 6 5 5 6
5 4 5 6 6 2 6 1 4 6 10 10 9 6 4 4 7 8 7 7 7 7 8 8 7 8 9 7 7 6 6 5 5 5 6 6 6 5 5 5 5 5 6 6
4 3 5 6 6 3 4 7 4 5 9 9 7 7 8 7 8 8 8 8 8 9 8 7 7 8 8 7 6 6 6 6 6 5 5 6 5 5 5 5 5 6 6 5
5 3 7 5 3 3 6 4 2 4 7 9 9 10 9 9 9 9 8 8 8 8 6 6 6 8 8 7 6 7 7 7 6 5 5 5 5 5 5 5 6 5 5 5
6 6 5 1 2 2 3 4 3 5 7 11 12 11 10 9 8 8 8 7 7 8 7 6 6 8 8 7 8 8 8 7 6 6 5 4 5 5 4 4 4 4 4 4
2 0 1 2 3 3 3 4 4 7 10 12 12 11 10 9 8 7 7 7 7 8 7 6 5 6 7 8 8 9 8 7 6 7 6 5 4 3 3 3 4 4 4 4
2 0 3 5 4 3 4 6 8 8 9 11 12 11 10 8 7 6 6 6 7 7 7 6 6 6 6 8 9 9 8 7 6 6 6 5 5 4 3 1 2 5 4 4
2 3 2 2 2 3 6 6 7 9 8 8 9 10 10 8 6 6 6 6 7 7 7 6 7 7 6 7 9 10 8 6 5 5 4 5 5 5 9 6 6 6 6 6
3 1 2 1 2 4 5 6 6 7 8 8 7 9 9 8 6 6 7 7 7 7 6 6 7 7 6 7 7 8 8 7 5 5 5 4 4 5 4 5 9 9 7 8
1 3 4 3 3 4 6 7 7 7 7 7 7 8 8 8 7 7 7 6 6 6 6 6 7 6 6 7 7 7 7 7 7 5 5 4 4 4 4 5 4 3 4 5
2 3 4 4 5 5 5 7 7 6 6 6 6 7 8 8 7 6 6 6 6 6 5 6 6 5 5 6 7 7 6 5 5 5 5 4 4 4 4 4 4 3 2 2
3 4 5 6 6 6 5 6 6 5 5 5 5 6 7 7 7 6 6 6 7 6 5 6 6 5 5 6 7 6 5 8 7 6 5 5 5 4 4 4 4 3 2 2
4 3 3 4 5 5 5 5 5 5 5 5 5 6 7 7 7 6 5 5 5 5 5 5 5 5 5 6 6 5 4 6 8 6 5 5 5 4 4 4 4 3 2 2
4 4 4 6 6 5 5 5 5 6 5 5 5 6 7 7 7 6 5 5 5 4 3 4 5 5 5 5 5 4 4 4 4 5 4 4 5 5 4 4 4 4 3 3
4 3 3 4 5 5 5 5 6 6 6 6 5 5 5 6 6 6 6 6 6 5 3 4 6 6 5 5 5 4 4 5 4 4 4 6 6 4 4 4 4 4 4 4
4 3 4 4 4 4 5 5 6 6 6 6 5 5 5 4 5 6 6 5 3 3 4 5 6 5 4 5 5 4 4 5 5 4 4 5 5 4 4 4 4 4 4 4
3 4 5 4 4 4 4 5 6 6 6 6 6 6 5 5 5 5 6 4 2 4 5 6 4 3 3 4 5 4 4 5 5 5 5 5 4 4 4 4 4 4 4 4
2 3 4 4 4 4 4 5 6 7 6 5 5 6 6 6 5 4 4 3 4 6 5 4 3 4 5 6 4 4 4 5 4 4 4 4 4 4 4 5 4 4 4 4
2 3 3 4 4 4 4 4 5 6 6 6 6 6 6 5 4 5 3 2 3 7 5 4 5 7 7 5 4 4 5 5 5 4 4 4 4 4 4 5 4 4 4 4
3 3 3 4 4 5 4 3 4 4 5 5 5 6 6 5 3 2 3 6 7 7 4 5 8 8 7 4 4 4 4 4 5 5 4 4 4 4 4 4 4 4 4 5
3 3 4 4 4 4 4 4 5 5 5 4 5 5 4 4 4 4 4 5 7 7 5 6 9 8 5 4 4 4 4 4 5 5 5 5 4 4 4 4 4 4 3 3
2 2 2 3 3 3 3 4 3 3 4 4 3 3 3 3 4 4 4 5 7 6 5 4 4 5 4 4 5 4 4 5 5 4 4 4 4 4 3 3 4 4 3 3
3 2 2 3 3 3 3 3 3 3 4 4 4 3 4 4 4 5 5 5 5 4 4 3 3 4 4 4 4 4 4 4 4 4 4 3 3 3 4 4 3 3 3 3
Wind_Direction
196 208 185 197 213 198 176 178 177 206 197 208 185 162 153 143 140 137 140 143 145 141 138 139 136 133 132 128 126 123 114 112 114 111 104 97 88 78 73 75 79 79 72 66
205 229 172 224 236 221 202 184 178 168 211 213 178 145 139 146 146 146 149 148 147 145 144 144 143 139 134 128 124 117 115 115 109 103 97 91 87 80 76 71 72 75 70 77
201 295 78 257 231 212 208 202 167 183 207 167 150 155 159 155 150 151 152 149 150 150 150 150 149 143 137 129 122 115 113 111 107 106 102 97 95 85 78 73 73 73 71 73
128 102 207 243 243 162 149 208 170 166 173 166 163 159 152 149 147 147 147 146 149 146 142 141 135 130 124 118 120 119 116 114 110 108 105 99 96 92 85 80 80 79 74 74
119 153 262 292 297 170 153 239 207 160 153 143 127 91 61 122 142 149 148 144 143 143 138 135 134 132 124 123 125 123 121 118 116 118 116 110 105 100 93 91 84 78 77 76
120 144 212 249 283 262 113 260 271 153 150 145 122 123 192 168 131 126 124 126 124 124 122 129 139 135 128 131 130 127 125 119 114 117 118 117 115 106 95 94 94 89 79 74
137 171 249 258 296 54 133 219 238 158 150 143 143 163 161 138 123 122 122 121 119 121 125 135 139 132 128 128 131 128 118 112 109 109 111 114 109 105 106 101 96 88 84 71
142 166 246 291 20 126 203 208 161 138 137 128 123 119 123 125 124 122 119 118 118 120 120 121 126 127 126 127 128 122 117 114 109 104 108 109 107 107 109 111 103 94 89 75
173 199 231 261 142 193 160 130 127 131 129 123 121 125 127 125 125 123 122 120 118 120 117 114 121 129 130 133 128 122 116 113 107 95 84 92 107 114 115 114 112 108 103 97
92 334 340 30 50 42 81 111 111 122 125 123 124 127 123 123 124 122 120 121 120 117 118 117 117 122 130 132 127 121 117 113 107 99 84 69 70 81 101 112 120 120 121 117
89 169 35 18 21 43 73 90 95 103 113 119 123 126 126 125 126 123 119 121 123 123 125 126 121 120 125 130 126 121 120 116 108 102 101 84 69 54 72 77 155 146 147 144
201 232 157 242 319 73 92 101 112 111 104 112 125 128 125 124 125 125 125 124 122 121 123 126 128 128 130 132 130 130 129 127 123 119 115 114 110 80 49 57 73 102 128 130
179 209 153 140 49 70 91 96 99 111 121 119 116 125 125 124 124 124 124 126 128 130 130 134 135 137 141 140 136 138 140 141 135 132 133 132 129 124 105 56 56 66 93 109
121 100 70 54 62 67 84 85 87 93 98 109 115 118 118 119 122 123 126 128 124 122 127 132 135 141 147 142 138 139 140 144 143 144 145 141 135 129 128 129 111 62 50 86
58 104 130 111 81 73 83 92 91 91 96 99 110 116 120 125 128 129 126 122 117 117 125 130 134 144 147 144 140 141 140 143 143 143 143 139 136 129 123 123 121 116 89 55
88 81 100 102 99 94 96 100 105 110 110 107 109 116 121 124 123 122 124 126 129 134 139 139 142 149 145 142 139 136 138 140 139 138 138 139 140 139 137 136 134 134 140 147
124 129 136 124 118 119 123 128 133 133 121 115 117 125 125 122 120 123 124 125 130 136 138 141 146 144 141 141 140 139 137 140 136 131 136 144 147 146 146 145 147 150 163 158
156 169 173 157 146 136 132 132 131 126 126 124 124 128 134 139 143 142 137 129 119 111 114 133 138 135 136 140 139 136 136 138 141 142 141 141 140 139 140 142 146 145 135 126
122 129 141 139 138 135 130 131 132 127 123 125 130 136 142 143 142 141 138 136 137 140 152 140 135 133 136 141 135 130 129 128 128 130 131 134 130 128 132 136 137 138 132 127
97 98 104 109 114 120 128 132 130 127 127 134 133 129 129 134 137 137 137 141 160 164 154 140 133 131 136 138 133 132 136 137 136 134 131 131 132 132 133 136 137 136 134 135
110 113 112 112 117 125 136 138 134 135 137 137 137 142 139 135 135 136 137 137 153 140 136 137 136 138 139 139 135 132 135 136 138 139 135 133 132 135 140 143 144 142 140 140
100 118 124 129 126 119 121 127 135 139 138 134 132 133 130 129 130 121 118 139 146 136 130 129 126 132 138 134 128 128 132 136 135 132 132 134 135 139 144 144 144 143 144 146
91 115 120 124 126 123 116 118 129 137 138 140 142 141 138 136 136 133 130 134 135 130 124 123 126 130 130 122 124 124 126 131 132 133 133 131 131 135 138 140 141 141 142 144
96 106 109 107 112 113 116 125 125 127 129 131 134 136 134 127 111 106 124 132 128 121 111 116 117 119 119 114 116 116 121 126 127 128 126 125 126 126 130 136 140 143 144 146
111 114 115 117 120 128 132 124 113 112 115 116 119 122 124 130 134 135 126 126 125 116 108 114 114 113 107 108 112 112 115 121 126 127 125 127 129 129 133 137 141 140 142 145
111 117 123 130 133 133 132 126 123 124 123 120 118 120 115 114 119 120 118 121 121 118 116 118 117 107 103 106 107 110 115 120 120 120 127 128 128 133 142 146 144 146 148 151
89 87 95 98 101 114 123 126 131 132 133 135 131 127 125 121 118 119 117 115 114 113 116 119 116 111 110 110 107 112 116 114 116 119 125 129 136 145 151 147 147 148 147 149